    Orbital elements:
    2015 TW144                                               Earth MOID = 0.2008 AU
    Epoch 2019 Apr. 27.0 TT = JDT 2458600.5                 MPC
    M 132.96772              (2000.0)            P               Q
    n   0.40367198     Peri.  250.23400     +0.13447873     -0.99043424
    a   1.8132192      Node   192.16157     +0.95520388     +0.13786817
    e   0.3766845      Incl.    8.43730     +0.26363047     +0.00569030
    P   2.44           H   20.7           G   0.15           U   0
    Residuals in seconds of arc
    990322 645  0.0   0.0     151101 G45  0.0   0.3+    151204 807  0.0   0.2+
    990322 645  0.0   0.1+    151101 G45  0.1-  0.0     151206 703  0.1+  2.1+
    100818 F51  0.2-  0.1+    151101 G45  0.1-  0.1+    151206 703  0.4-  1.2+
    100819 F51  0.3+  0.3-    151101 G45  0.1-  0.1+    151209 807  0.2+  0.1+
    100819 F51  0.0   0.1-    151101 G45  0.1+  0.1+    151209 807  0.2+  0.3+
    100819 F51  0.3+  0.1+    151101 G45  0.2-  0.2-    151209 807  0.2+  0.3+
    100819 F51  0.0   0.2+    151102 703  0.5-  1.4+    151209 807  0.2+  0.0
    110129 F51  0.2+  0.0     151102 703  0.2-  0.2+    151209 807  0.1+  0.2+
    110129 F51  0.2+  0.3+    151102 703  0.3-  0.7+    151210 807  0.1-  0.1-
    110129 F51  0.6+  0.1-    151102 703  0.0   0.4+    151210 807  0.1-  0.1-
    151010 G45  0.0   0.2-    151102 H21  0.1+  0.4+    151210 807  0.1-  0.3-
    151010 G45  0.3-  0.0     151102 H21  0.2+  0.2-    151210 807  0.2-  0.1-
    151010 G45  0.0   0.1+    151102 H21  0.5+  0.4+    151210 807  0.1-  0.2-
    151010 G45  0.0   0.2+    151107 G45  0.1+  0.2+    151214 807  0.2-  0.3+
    151010 G45  0.2+  0.1+    151107 G45  0.1-  0.1+    151214 807  0.1-  0.6+
    151010 J04  0.0   0.1-    151107 G45  0.1-  0.1-    151214 807  0.2-  0.5+
    151010 J04  0.1-  0.0     151107 G45  0.2-  0.1+    151214 807  0.3-  0.3+
    151010 J04  0.0   0.2-    151108 691  0.2-  0.1-    151214 807  0.3-  0.5+
    151011 291  0.5-  0.0     151108 691  0.2-  0.1+    151214 691  0.1-  0.2-
    151011 291  0.4-  0.1+    151108 691  0.3-  0.1-    151214 691  0.4-  0.2-
    151011 113  0.1-  0.8-    151109 H21  0.2-  0.1-    151214 691  0.3-  0.2-
    151011 246  0.1-  1.0+    151109 H21  0.2-  0.1-    151215 807  0.2+  0.2-
    151011 246  0.4-  0.3+    151109 H21  0.1-  0.0     151215 807  0.2+  0.0
    151011 246  0.3+  0.0     151109 H21  0.1-  0.1-    151215 807  0.3+  0.1+
    151011 246  0.1-  0.3+    151109 H21  0.1+  0.1+    151215 807  0.2+  0.0
    151011 113  0.4-  0.3+    151109 H21  0.0   0.1-    151215 807  0.1-  0.0
    151011 K62  0.1+  0.3+    151109 691  0.2-  0.1+    151217 807  0.0   0.2-
    151012 K62  0.1+  0.2+    151109 691  0.1-  0.1-    151217 807  0.1-  0.1-
    151012 K62  0.1-  0.1+    151109 691  0.3-  0.0     151217 807  0.4-  0.4-
    151012 H01  0.3+  0.0     151110 H21  0.1+  0.1+    151217 807  0.0   0.3-
    151012 H01  0.1+  0.0     151110 H21  0.1+  0.1-    151223 807  0.2-  0.1+
    151012 H01  0.1+  0.0     151110 H21  0.0   0.2+    151223 807  0.2-  0.1+
    151012 H01  0.2+  0.0     151110 H21  0.1+  0.3+    151223 807  0.1+  0.2+
    151013 H21  0.1-  0.1-    151110 H21  0.1-  0.3+    151223 807  0.2-  0.2+
    151013 H21  0.1-  0.1+    151110 H21  0.1-  0.1+    151223 807  0.4-  0.3+
    151013 H21  0.1+  0.2+    151110 G45  0.0   0.1-    151228 807  0.3-  0.3+
    151013 H36  0.1+  0.2-    151110 G45  0.3+  0.2+    151228 807  0.5-  0.1+
    151013 H36  0.0   0.1-    151110 703  0.7-  0.6+    151228 807  0.1+  0.1-
    151013 H36  0.0   0.4-    151110 G45  0.2-  0.2+    151228 807  0.1-  0.2-
    151013 926  0.1-  0.4-    151110 703  0.4+  0.6-    151228 807  0.5-  0.2+
    151013 926  0.6-  0.3-    151110 G45  0.0   0.0     151231 G45  0.2-  0.3-
    151013 926  0.3+  0.1+    151110 703  0.8+  0.1-    151231 G45  0.5+  0.1-
    151013 300  0.2-  0.4-    151110 G45  0.0   0.3-    151231 G45  0.2-  0.2+
    151013 300  0.1-  0.8-    151110 703  0.6+  1.0+    151231 G45  0.5+  0.1+
    151013 300  0.7+  0.0     151110 G45  0.1+  0.3+    151231 G45  0.0   0.0
    151013 300  0.4+  0.3+    151113 H21  0.4+  0.2-    160103 807  0.1+  0.2-
    151014 H21  0.2-  0.5-    151113 H21  0.2+  0.1-    160103 807  0.1+  0.1-
    151014 H21  0.2-  0.4-    151113 H21  0.4+  0.1-    160103 807  0.1-  0.1-
    151015 H21  0.0   0.0     151113 H21  0.4+  0.1-    160103 807  0.1-  0.1-
    151015 H21  0.1+  0.0     151113 H21  0.2+  0.3-    160103 807  0.1-  0.3-
    151015 H21  0.0   0.2+    151113 H21  0.2+  0.2-    160103 807  0.2-  0.8+
    151015 H21  0.1-  0.1+    151113 H21  0.3+  0.3-    160103 807  0.6-  0.5+
    151015 H21  0.0   0.1-    151113 H21  0.5+  0.3-    160103 807  0.8-  1.0+
    151015 703  0.1+  0.3-    151113 H21  0.4+  0.0     160103 807  0.2-  0.7+
    151015 703  0.4+  0.3-    151115 807  0.1+  0.0     160107 807  0.1+  0.3-
    151015 703  0.1+  0.2+    151115 807  0.3+  0.2-    160107 807  0.1+  0.2-
    151016 H21  1.9-  0.6-    151115 807  0.2+  0.1-    160107 807  0.1+  0.2-
    151016 H21  1.4-  0.7-    151115 807  0.2+  0.2-    160107 807  0.1+  0.2-
    151018 H21  0.1+  0.1+    151115 807  0.2+  0.2-    160107 807  0.0   0.0
    151018 H21  0.0   0.1+    151117 F51  0.0   0.0     160109 807  0.2+  0.2-
    151018 H21  0.0   0.1+    151117 F51  0.0   0.0     160109 807  0.2+  0.2-
    151018 H21  0.1+  0.3+    151117 F51  0.0   0.0     160109 807  0.0   0.1-
    151018 H21  0.1-  0.2+    151118 807  0.2+  0.2-    160109 807  0.2+  0.2-
    151018 F51  0.1-  0.1+    151118 807  0.2+  0.1-    160109 807  0.1+  0.2-
    151018 F51  0.1-  0.0     151118 807  0.2+  0.0     160111 F51  0.0   0.0
    151018 F51  0.1-  0.0     151118 807  0.1+  0.1-    160111 F51  0.0   0.1-
    151018 D29  0.1-  0.1+    151118 807  0.1+  0.1-    160111 F51  0.0   0.0
    151018 D29  0.2-  0.2-    151120 807  0.0   0.1-    160114 807  0.4+  0.4-
    151018 D29  0.3-  0.2+    151120 807  0.1+  0.2-    160114 807  0.1+  0.3-
    151019 H21  0.0   0.0     151120 807  0.0   0.2-    160114 807  0.0   0.6-
    151019 H21  0.0   0.0     151120 807  0.1-  0.2-    160114 807  0.0   0.1-
    151019 H21  0.1-  0.1-    151120 807  0.0   0.4-    160114 807  0.1+  0.0
    151019 F51  0.0   0.0     151120 G45  0.1+  0.0     160116 F51  0.2+  0.1-
    151019 F51  0.0   0.0     151120 G45  0.3-  0.4+    160116 F51  0.1+  0.0
    151019 F51  0.0   0.0     151120 G45  0.1-  0.0     160117 F51  0.0   0.1-
    151020 H21  0.4+  0.0     151120 G45  0.1+  0.2+    160117 F51  0.1+  0.1-
    151020 H21  0.4+  0.1-    151127 807  0.2+  0.2+    160117 F51  0.0   0.1-
    151020 H21  0.2+  0.3-    151127 807  0.2+  0.1-    160117 F51  0.0   0.1-
    151020 H21  0.2+  0.1-    151127 807  0.0   0.1-    160122 807  0.1+  0.2+
    151020 H21  0.2+  0.3-    151127 807  0.1+  0.0     160122 807  0.0   0.3+
    151021 H45  0.1-  0.3-    151127 807  0.2+  0.0     160122 807  0.1-  0.3+
    151021 H45  0.2+  0.0     151128 807  0.2+  0.3-    160125 807  0.3-  0.1-
    151021 H45  0.2+  0.3-    151128 807  0.1+  0.3-    160125 807  0.1+  0.1+
    151021 H45  0.1+  0.4-    151128 807  0.1+  0.3-    160125 807  0.2+  0.2-
    151021 H45  0.1+  0.3+    151128 807  0.0   0.2-    160128 F51  0.0   0.0
    151021 H45  0.0   0.1+    151128 807  0.1+  0.3-    160128 F51  0.0   0.1+
    151021 F51  0.1+  0.2-    151128 926  0.1+  0.1+    160128 F51  0.1-  0.1+
    151021 F51  0.1+  0.1-    151128 926  0.2+  0.1-    160128 F51  0.1-  0.1+
    151021 F51  0.2+  0.1-    151128 926  0.1+  0.7-    160130 H21  0.2+  0.0
    151022 H21  0.2-  0.1+    151129 G45  0.0   0.0     160130 H21  0.1+  0.0
    151022 H21  0.1+  0.0     151129 G45  0.2+  0.7+    160130 H21  0.0   0.2+
    151022 H21  0.3+  0.7-    151129 G45  0.2+  0.3-    160131 807  0.2+  0.1+
    151023 204  0.3+  0.1+    151129 G45  0.1+  0.1-    160131 807  0.2+  0.1-
    151023 204  0.1+  0.1-    151129 G45  0.2-  0.3+    160131 807  0.2+  0.2-
    151023 204  0.2+  0.3+    151129 G45  0.1-  0.2-    160131 807  0.3+  0.1-
    151030 807  0.2+  0.1-    151129 G45  0.0   0.1+    160131 807  0.3+  0.2-
    151030 807  0.2+  0.2-    151202 G45  0.3-  0.4+    160202 807  0.0   0.0
    151030 807  0.0   0.3-    151202 G45  0.1+  0.0     160202 807  0.1+  0.1+
    151030 807  0.1-  0.2-    151202 G45  0.3-  0.0     160202 807  0.0   0.0
    151030 807  0.1-  0.1-    151202 G45  0.2+  0.0     160202 807  0.1+  0.2+
    151031 246  1.1-  0.0     151202 G45  0.0   0.3-    160202 807  0.2+  0.0
    151031 246  0.4-  0.5+    151202 G45  0.4+  0.1+    160211 807  0.8-  0.7-
    151031 246  0.4-  0.1-    151202 G45  0.3+  0.1+    160211 807  0.2-  0.2-
    151031 246  0.8-  0.8+    151204 807  0.1-  0.1+    160211 807  0.1+  0.1+
    151031 246  0.5-  0.2+    151204 807  0.3-  0.0     160212 F51  0.1+  0.3-
    151101 G45  0.0   0.0     151204 807  0.2-  0.0     160212 F51  0.0   0.1-
    151101 G45  0.3-  0.1-    151204 807  0.1-  0.2+
    
    Ephemeris:
    2015 TW144               a,e,i = 1.81, 0.38, 8                   q = 1.1302
    Date    TT    R. A. (2000) Decl.     Delta      r    Elong.  Phase     V
    2019 07 03    15 41 45.4 -08 24 11   1.6614  2.4743   133.6    17.3    24.7
    ...
    2019 07 18    15 37 42.1 -08 52 14   1.8299  2.4856   118.9    21.0    25.0
    ...
    2019 07 26    15 38 12.0 -09 17 45   1.9294  2.4900   111.6    22.3    25.2
    ...
    2019 08 01    15 39 41.1 -09 40 34   2.0068  2.4926   106.5    23.0    25.3
    2019 08 02    15 40 01.3 -09 44 38   2.0199  2.4929   105.6    23.1    25.3
    2019 08 03    15 40 22.9 -09 48 46   2.0331  2.4933   104.8    23.2    25.3
    ...
    2019 08 09    15 43 02.1 -10 14 50   2.1125  2.4949    99.9    23.6    25.4
    ...
    2019 08 17    15 47 47.6 -10 52 16   2.2194  2.4962    93.6    23.9    25.5
    ...
    2019 09 01    16 00 00.3 -12 07 06   2.4185  2.4954    82.5    23.6    25.7
    
